Volver al catálogo

SL-14 DEB

ActivoPO
NORAD 45340·DEBRIS·🇷🇺 Russia

Lanzado Aug 15, 1991 desde Plesetsk Cosmodrome

Loading…

Próximos Pases (próximas 24 horas)

TLE

ActualizadoSource: Space-Track

Época: Sep 14, 2026, 09:39 UTC

1 45340U 91056CE  26257.40275691  .00006972  00000-0  11198-1 0  9998
2 45340  82.5312  42.4949 0084152 348.9244  11.0040 13.47160662316603

Sigue SL-14 DEB en tiempo real con AllMySat

Download on the App Store